OSCAR 24 [?]

Last updated on Tue Jun 27 2023 00:03:36 GMT+0000 (Coordinated Universal Time)

1 15936U 85066B 23177.30722299 .00000130 00000+0 21546-3 0 9997 2 15936 90.1824 76.3431 0170974 109.5860 5.8387 13.35686174846442

Satellite not in orbit

OSCAR 24 [?]